STARLINK-1859 (47146 NORAD) Tracking and Keplerian Element Data
This shows tracking and keplerian element data for the satellite.
Feedback or suggestion? Click here.
Element | Value |
Catalog | 47146 |
Name | STARLINK-1859 |
Epoch Orbit | 1544 |
Epoch Day | 60.16668981 |
Epoch Year | 2021 |
RAAN | 267.1346 |
Inclination | 53.0466 |
Eccentricity | 0.0003121 |
Argument of Perigee | 88.4675 |
Mean Anonmoly | 98.186 |
Mean Motion | 15.06432532 |
Decay Rate | -0.00060253 |
L1 | 1 47146U 20088AA 21060.16668981 -.00060253 00000-0 -40564-2 0 9993 |
L2 | 2 47146 53.0466 267.1346 0003121 88.4675 98.1860 15.06432532 15449 |
Live tracking and technical data element details for STARLINK-1859 (NORAD 47146). STARLINK-1859 can be tracked NOW for your location showing map with azimuth and elevation plus other details from your city location.
Track the satellite on the map from your city or location and see movement details for azimuth, elevation, latitude, longitude, range, height, and movement on the map or in text.
IsCatalogInMostPopularTable: catalog: 47146, numindb: 29
Update: records affected: 1
GetName: 47146 STARLINK-1859
Hit Count: updated at: Mon, 01 Mar 2021 23:12:41 GMT